Location: Unnamed
(42.1164°N, 2.7652°E)
Time: 15:00:51
(UTC+02:00)

Envisat - Visible Passes

Search period start: 24 July 2021 00:00
Search period end: 03 August 2021 00:00
Orbit: 764 x 766 km, 98.1° (Epoch: 23 July)

Date Brightness Start Highest point End Pass type
(mag) Time Alt. Az. Time Alt. Az. Time Alt. Az.
28 Jul 5.7 05:56:46 10° NE 06:00:00 17° E 06:03:11 10° SE visible
31 Jul 5.9 05:46:05 10° ENE 05:48:22 13° E 05:50:38 10° ESE visible
02 Aug 5.5 06:10:01 10° NE 06:14:00 23° E 06:17:58 10° SE visible
